Flag for Kiribati Weather past 2 weeks in Kiritimati, Christmas Island, Kiribati

Now
81 °F

Passing clouds.


Feels Like: 85 °F
Forecast: 81 / 84 °F
Wind: 9 mph from Southeast

Location: Christmas / Cassidy

Current Time: Aug 21, 2014 at 1:33:35 AM

Latest Report: Aug 20, 2014 at 11:00 PM


Visibility: N/A

Pressure: 29.86 "Hg

Humidity: 79%

Dew point: 73 °F

Location of KiritimatiLocation

Historic Weather in Kiritimati — Graph

°F

Kiritimati temperature yesterday

Maximum temperature yesterday: 86 °F (at 10:00 AM)
Minimum temperature yesterday: 79 °F (at 2:00 AM)
Average temperature yesterday: 81 °F

Past Weeks' High & Low Weather Summary

 TemperatureHumidityPressure
High88 °F (Aug 16, 12:00 PM)94% (Aug 6, 6:00 AM)29.92 "Hg (Aug 6, 6:00 AM)
Low77 °F (Aug 14, 2:00 AM)52% (Aug 17, 2:00 PM)29.77 "Hg (Aug 17, 2:00 PM)
Average82 °F75%29.85 "Hg
* Reported Aug 5 11:00 PM — Aug 20 11:00 PM, Kiritimati, Weather by CustomWeather, © 2014

Note: Actual official high and low records may vary slightly from our data, if they occured in-between our weather recording intervals... More about our weather records

Advertising

Kiritimati weather history for previous 24 hours

 ConditionsComfort  
Time TempWeatherWind HumidityBarometerVisibility
11:00 PM
Aug 20
81 °FPassing clouds.9 mph79%29.86 "HgN/A
10:00 PM81 °FPassing clouds.7 mph79%29.86 "HgN/A
8:00 PM81 °FPassing clouds.12 mph79%29.86 "HgN/A
5:00 PM82 °FPassing clouds.7 mph74%29.80 "HgN/A
4:00 PM82 °FScattered clouds.9 mph74%29.80 "HgN/A
3:00 PM82 °FScattered showers. Broken clouds.12 mph74%29.80 "HgN/A
2:00 PM86 °FBroken clouds.9 mph66%29.80 "HgN/A
12:00 PM86 °FSprinkles. Passing clouds.12 mph70%29.86 "HgN/A
10:00 AM86 °FPassing clouds.16 mph66%29.86 "HgN/A
8:00 AM81 °FScattered clouds.9 mph84%29.83 "HgN/A
7:00 AM81 °FScattered clouds.5 mph84%29.83 "HgN/A
6:00 AM79 °FScattered clouds.5 mph89%29.83 "HgN/A
5:00 AM79 °FScattered clouds.5 mph89%29.83 "HgN/A
4:00 AM79 °FPassing clouds.7 mph89%29.83 "HgN/A
3:00 AM79 °FPassing clouds.5 mph89%29.83 "HgN/A
2:00 AM79 °FPassing clouds.7 mph89%29.89 "HgN/A
Weather by CustomWeather, © 2014

See weather overviewHow to use our weather pages